COSMOS 2251 DEB, 34554

Orbit data source: Space-Track

COSMOS 2251 DEB, 34554 is space debris in LEO originally from a launch on Wed, 16 Jun 1993 UTC launched from the Plesetsk Missile And Space Complex (PKMTR). The debris from Iridium 33, an American commercial communications satellite, has been tracked extensively since its accidental collision with the defunct Russian satellite Cosmos 2251 in 2009. This event, occurring at high speed in low Earth orbit (LEO), generated thousands of pieces of space debris, significantly increasing the risk of further collisions. The Iridium 33 debris cloud has impacted space traffic management and orbital debris mitigation strategies, making it a subject of ongoing study in space situational awareness.

Loading next visibility...
Identifier
34554, 1993-036UQ
Orbit
LEO
Country
Flag of CISCIS
Related business
Manufacturer
Unknown
Mission
Spacecraft
Bus & Motor
Unknown
Mass
Unknown
Launch date (UTC)
1993-06-16 (33 years ago)
Launch vehicle
Unknown
Launch site
Plesetsk Missile And Space Complex (PKMTR)
Object type
Payload
Rocket body
Debris
Shape & HBR
Unknown shape, 0.1 m
Radar Cross Section
Small (<0.1 m²)

Expand to show TLE details & history
Last TLE update: 1 day ago

TLE from 1 day ago
0 COSMOS 2251 DEB
1 34554U 93036UQ  25350.88614608  .00000896  00000-0  30428-3 0  9991
2 34554  74.0394 291.3565 0023181 352.8955  71.8534 14.37947436878158
Epoch: 2025-12-16T21:16Z
TLE epoch observation values (Epoch: 2025-12-16T21:16:03.021Z)
Latitude
60.72448°
Longitude
-82.9266°
Altitude
770.168 km
Speed
7.478 km/s
True Right ascension
21h 27m 23s
True Declination
60° 34' 40"
Sunlit
Object was in daylight at epoch
Visualization orbit readout
Latitude
Unknown
Longitude
Unknown
Altitude
Unknown
Speed
Unknown
Apparent Right ascension
Unknown
Apparent Declination
Unknown
Sunlit
N/A
Visualization observer readout
Local Sidereal Time
04:33:03
Azimuth
Unknown
Elevation
Unknown
Doppler factor
Unknown
Orbital elements
Apogee altitude
779.463 km
Perigee altitude
746.356 km
Semi-major axis
7,141.047 km
Eccentricity
0.00232
Inclination
74.0394°
RAAN
291.3565°
Arg. of periapsis
352.8955°
True anomaly
72.10605°
Mean anomaly
71.8534°
Eccentric anomaly
71.9797°
Mean motion
3.59667 °/min
Orbital period
100.09 mins
BSTAR
0.00030428

Documentation

Showing up to 5 results
|